Regional Weather Roundup
Issued by NWS New Orleans/Baton Rouge, LA

Current Version | Previous Version | Text Only | Print | Product List | Glossary On
Versions: 1 2 3 4 5 6 7 8 9 10 11 12 13 14 15 16 17 18 19 20 21 22 23 24 25 26 27 28 29 30 31 32 33 34 35 36 37 38 39 40 41 42 43 44 45 46 47 48 49 50
000
ASUS44 KLIX 210512
RWRLIX
NEW ORLEANS REGIONAL WEATHER ROUNDUP
NATIONAL WEATHER SERVICE NEW ORLEANS LA
1100 PM CST TUE FEB 20 2018

NOTE: "FAIR" INDICATES FEW OR NO CLOUDS BELOW 12,000 FEET WITH NO
      SIGNIFICANT WEATHER AND/OR OBSTRUCTIONS TO VISIBILITY.
      SKY/WX - SKY CONDITION AND SIGNIFICANT WEATHER.
      TMP - AIR TEMPERATURE.     DP    - DEWPOINT TEMPERATURE.
      RH  - RELATIVE HUMIDITY.   PRES  - PRESSURE.
      HI  - HEAT INDEX.          WCI   - WIND CHILL INDEX.

*  THESE STATIONS ARE NOT NWS OR FAA STATIONS AND ARE NOT UNDER
   NWS QUALITY CONTROL.

LAZ038-040-048-061>063-065>067-069-210600-
SOUTHEAST LOUISIANA

CITY           SKY/WX    TMP DP  RH WIND       PRES   REMARKS
N.O. INTL ARPT FAIR      73  72  96 SE8       30.19R
N.O. LAKEFRONT CLOUDY    73  70  90 SE9       30.20S FOG
N.O. DOWNTOWN* FAIR      73  70  90 VRB5      30.21R
RESERVE*       CLOUDY    75  71  89 SE6       30.19S
SLIDELL        CLOUDY    72  69  90 SE8       30.20S
BATON ROUGE    MOCLDY    73  68  84 SE8       30.16S
BOOTHVILLE     NOT AVBL
BELLE CHASSE   NOT AVBL
BOGALUSA*      CLOUDY    73  69  87 S3        30.21S
GALLIANO*      FAIR      74  70  86 SE6       30.19R
NEW ROADS*     FAIR      70  65  84 SE6       30.16S
GONZALES*      NOT AVBL
HAMMOND*       CLOUDY    70  68  94 SE5       30.19S FOG
HOUMA*         FAIR      74  72  91 SE8       30.19R
PORT FOURCHON* CLEAR     75  73  94 SE8       30.19S FOG

$$

MSZ070-080>082-210600-
SOUTHERN MISSISSIPPI

CITY           SKY/WX    TMP DP  RH WIND       PRES   REMARKS
MCCOMB         CLOUDY    72  68  87 S9        30.19S
GULFPORT       FOG       72  72 100 SE17      30.21S VSB 1/2
BILOXI         CLOUDY    71  71  97 SE10G16   30.22S FOG
PASCAGOULA     CLOUDY    72  70  93 SE12      30.23S

$$

COASTAL OBSERVATIONS
LAKE AND NEARSHORE STATIONS

STATION/POSITION TIME  SKY/WX   TEMP    WIND        PRES    WAVE
                                AIR SEA DIR/SP/G            HT/PER
                 (UTC)          (F)     (DEG/KT/KT) (MB)    (FT/S)
WAVELAND YACHT   0442            72 72  170/ 12/ 15 1023.1
GRAND ISLE       0442            73 72  140/  3/  6 1022.7
SOUTHWEST PASS   0442            70 49  150/  7/ 10 1023.3
NEW CANAL        0442            72 65  130/  3/  8 1022.3
SHELL BEACH      0442            72 75  140/  7/  9 1023.0

OFFSHORE STATIONS

STATION/POSITION TIME  SKY/WX   TEMP    WIND        PRES    WAVE
                                AIR SEA DIR/SP/G            HT/PER
                 (UTC)          (F)     (DEG/KT/KT) (MB)    (FT/S)
64 S DAUPHIN ISL 0440               73  150/  8/ 10 1023.9

$$





USA.gov is the U.S. government's official web portal to all federal, state and local government web resources and services.